Total_Precipitation_Accumulation
0.68 0.65 0.63 0.65 0.70 0.78 0.86 1.00 1.15 1.36 1.47 1.52 1.62 1.83 1.97 2.06 2.13 2.17 2.02 1.90 1.86 1.99 2.12 2.03 2.10 2.10 1.97 1.95 2.01 2.07 2.04 1.85 1.68 1.73 1.62 1.36 1.18 1.25 1.23 1.24 1.30 1.32 1.40
0.53 0.49 0.44 0.47 0.51 0.53 0.60 0.73 0.90 1.02 1.16 1.36 1.65 1.89 2.14 2.15 2.19 2.24 2.22 2.14 2.06 2.18 2.21 2.28 2.38 2.40 2.40 2.33 2.22 2.34 2.51 2.23 1.98 2.11 2.39 1.99 1.64 1.28 1.05 1.16 1.26 1.33 1.57
0.38 0.32 0.31 0.38 0.44 0.44 0.49 0.61 0.76 0.93 1.17 1.42 1.80 2.09 2.37 2.45 2.50 2.45 2.44 2.41 2.39 2.41 2.43 2.48 2.53 2.54 2.41 2.40 2.51 2.64 2.99 2.80 2.42 2.23 2.53 2.37 2.05 1.74 1.28 1.15 1.26 1.36 1.51
0.38 0.34 0.31 0.32 0.35 0.41 0.50 0.64 0.87 1.12 1.42 1.76 2.12 2.39 2.67 2.82 2.64 2.63 2.63 2.56 2.44 2.40 2.47 2.46 2.43 2.40 2.35 2.42 2.49 2.55 2.98 3.22 2.93 2.56 2.15 1.93 1.92 2.05 1.76 1.32 1.26 1.36 1.39
0.42 0.40 0.40 0.41 0.45 0.53 0.63 0.82 1.10 1.43 1.77 2.06 2.25 2.52 2.64 2.66 2.59 2.52 2.51 2.41 2.36 2.30 2.30 2.27 2.35 2.36 2.39 2.46 2.63 2.77 3.03 3.08 3.11 2.91 2.66 2.42 2.13 1.82 1.92 1.87 1.58 1.50 1.39
0.44 0.44 0.48 0.56 0.64 0.72 0.89 1.10 1.28 1.59 1.80 1.98 2.15 2.35 2.50 2.52 2.47 2.43 2.45 2.44 2.38 2.26 2.18 2.13 2.19 2.31 2.42 2.47 2.57 2.76 3.02 3.15 3.27 3.18 2.87 2.77 2.62 2.35 2.26 2.01 1.84 1.79 1.53
0.49 0.51 0.63 0.81 0.88 0.93 1.05 1.24 1.33 1.54 1.67 1.76 1.89 2.05 2.10 2.13 2.13 2.12 2.12 2.03 1.97 1.94 1.99 2.06 2.15 2.27 2.34 2.41 2.53 2.67 2.73 2.88 3.16 3.19 3.00 2.78 2.60 2.60 2.47 2.37 2.06 1.84 1.58
0.67 0.77 0.92 1.02 1.11 1.15 1.14 1.20 1.36 1.40 1.43 1.51 1.53 1.63 1.69 1.74 1.79 1.77 1.77 1.81 1.84 1.85 1.79 1.82 1.89 2.11 2.30 2.38 2.46 2.48 2.47 2.54 2.76 2.77 2.85 2.81 2.56 2.52 2.44 2.46 2.61 2.29 1.99
0.92 1.17 1.38 1.48 1.55 1.50 1.34 1.22 1.25 1.27 1.26 1.36 1.42 1.46 1.52 1.56 1.58 1.60 1.51 1.62 1.64 1.63 1.58 1.62 1.66 1.77 1.97 2.21 2.36 2.33 2.26 2.24 2.40 2.47 2.56 2.70 2.74 2.65 2.58 2.58 2.73 2.74 2.45
1.37 1.68 1.95 2.12 2.09 1.88 1.63 1.40 1.24 1.17 1.16 1.21 1.31 1.41 1.44 1.46 1.43 1.47 1.38 1.39 1.48 1.48 1.41 1.42 1.54 1.68 1.77 1.94 2.14 2.21 2.17 2.19 2.28 2.40 2.51 2.66 2.80 2.83 2.62 2.60 2.64 2.57 2.57
1.84 2.05 2.23 2.34 2.14 1.95 1.67 1.40 1.22 1.22 1.25 1.30 1.36 1.38 1.33 1.33 1.32 1.28 1.23 1.27 1.35 1.34 1.31 1.44 1.53 1.59 1.68 1.85 2.07 2.22 2.23 2.18 2.20 2.19 2.28 2.48 2.61 2.84 2.78 2.67 2.63 2.55 2.48
1.59 1.73 1.84 1.85 1.89 1.84 1.65 1.45 1.31 1.30 1.35 1.41 1.47 1.41 1.35 1.30 1.28 1.25 1.17 1.15 1.12 1.11 1.21 1.33 1.36 1.39 1.42 1.61 1.89 2.08 2.13 2.13 2.02 1.97 2.09 2.33 2.54 2.75 2.86 2.81 2.71 2.67 2.55
1.35 1.38 1.44 1.55 1.65 1.67 1.57 1.55 1.49 1.49 1.51 1.49 1.40 1.35 1.28 1.19 1.15 1.07 1.03 1.06 1.06 1.14 1.25 1.29 1.31 1.33 1.39 1.43 1.55 1.74 1.87 1.87 1.82 1.83 1.85 1.87 2.08 2.39 2.61 2.65 2.73 2.76 2.73
1.08 1.09 1.20 1.32 1.42 1.44 1.47 1.45 1.42 1.46 1.56 1.64 1.55 1.44 1.35 1.25 1.19 1.09 1.00 0.98 1.01 1.11 1.21 1.24 1.29 1.36 1.40 1.40 1.43 1.44 1.51 1.55 1.63 1.68 1.69 1.73 1.78 2.03 2.25 2.34 2.51 2.75 2.81
0.78 0.82 0.89 0.92 0.92 0.91 1.01 1.08 1.17 1.30 1.45 1.61 1.62 1.50 1.36 1.25 1.18 1.12 1.02 0.98 0.99 1.01 1.10 1.15 1.16 1.22 1.31 1.41 1.46 1.35 1.31 1.39 1.47 1.46 1.41 1.44 1.63 1.85 1.99 1.97 2.25 2.59 2.81
0.55 0.54 0.55 0.55 0.53 0.52 0.54 0.59 0.72 0.91 1.16 1.41 1.44 1.29 1.15 1.02 0.97 0.99 1.00 0.98 0.95 1.00 1.03 0.98 1.00 1.09 1.12 1.39 1.43 1.27 1.18 1.22 1.32 1.40 1.38 1.27 1.30 1.43 1.55 1.62 1.77 2.03 2.27
0.41 0.43 0.43 0.41 0.40 0.39 0.39 0.44 0.55 0.72 0.91 1.03 1.04 0.98 0.92 0.91 0.97 1.02 0.98 0.97 0.98 0.98 1.00 0.96 0.96 0.98 1.12 1.26 1.15 1.20 1.13 1.16 1.21 1.29 1.38 1.29 1.19 1.35 1.38 1.51 1.61 1.57 1.67
0.32 0.31 0.34 0.35 0.39 0.39 0.42 0.47 0.55 0.63 0.72 0.76 0.78 0.76 0.78 0.82 0.90 0.94 0.93 1.00 1.04 0.98 0.98 1.03 1.03 1.01 1.09 1.15 1.06 1.16 1.10 1.08 1.12 1.24 1.34 1.38 1.31 1.37 1.51 1.47 1.47 1.42 1.43
0.25 0.22 0.23 0.24 0.28 0.30 0.31 0.32 0.34 0.37 0.41 0.45 0.49 0.53 0.57 0.61 0.65 0.69 0.78 0.92 1.00 1.02 1.05 1.10 1.10 1.02 1.01 1.13 1.08 1.13 1.08 1.07 1.09 1.12 1.21 1.29 1.23 1.49 1.65 1.52 1.62 1.62 1.53
0.24 0.24 0.21 0.21 0.25 0.27 0.29 0.27 0.27 0.28 0.29 0.30 0.34 0.40 0.44 0.47 0.50 0.58 0.66 0.75 0.80 0.89 1.01 1.03 1.03 1.04 1.02 1.27 1.21 1.20 1.09 1.10 1.17 1.19 1.16 1.36 1.37 1.55 1.58 1.41 1.60 1.65 1.61
0.22 0.25 0.25 0.23 0.25 0.28 0.29 0.29 0.29 0.31 0.34 0.36 0.37 0.39 0.41 0.43 0.49 0.56 0.61 0.68 0.74 0.84 0.90 0.93 0.96 1.03 1.14 1.35 1.36 1.39 1.25 1.23 1.33 1.29 1.18 1.12 1.35 1.28 1.39 1.40 1.34 1.62 1.69
0.20 0.22 0.24 0.26 0.28 0.28 0.29 0.30 0.30 0.32 0.37 0.39 0.41 0.42 0.43 0.47 0.51 0.57 0.63 0.67 0.72 0.75 0.80 0.84 0.89 0.94 1.03 1.13 1.22 1.26 1.27 1.29 1.29 1.31 1.19 1.20 1.36 1.21 1.20 1.17 1.26 1.53 1.65
0.19 0.20 0.22 0.23 0.24 0.26 0.27 0.29 0.34 0.37 0.39 0.40 0.42 0.45 0.46 0.48 0.49 0.54 0.61 0.66 0.68 0.71 0.75 0.80 0.86 0.91 0.96 1.03 1.09 1.07 1.11 1.18 1.18 1.16 1.26 1.30 1.29 1.17 1.06 1.06 1.17 1.26 1.34
0.19 0.18 0.21 0.24 0.24 0.26 0.28 0.34 0.37 0.37 0.37 0.41 0.44 0.44 0.45 0.46 0.49 0.52 0.57 0.62 0.66 0.68 0.73 0.80 0.84 0.87 0.91 0.95 0.96 1.04 1.09 1.06 1.04 1.05 1.06 1.09 1.11 1.10 1.02 1.02 1.09 1.16 1.28
0.21 0.24 0.27 0.29 0.29 0.31 0.34 0.40 0.44 0.41 0.38 0.39 0.41 0.41 0.43 0.47 0.49 0.50 0.53 0.55 0.60 0.72 0.80 0.84 0.87 0.85 0.82 0.83 0.90 1.00 1.10 1.19 1.25 1.31 1.21 1.17 1.15 1.12 1.05 1.03 1.04 1.12 1.22
0.27 0.29 0.31 0.34 0.35 0.34 0.37 0.40 0.44 0.46 0.45 0.45 0.42 0.40 0.41 0.44 0.47 0.49 0.49 0.53 0.56 0.66 0.73 0.74 0.75 0.75 0.79 0.84 0.83 0.87 0.99 1.14 1.32 1.45 1.38 1.42 1.41 1.36 1.28 1.22 1.15 1.11 1.13